Location: Huberhof
(49.2050°N, 7.4980°E)
Time: 05:29:30
(UTC+00:00)

SJ 16-02 - Pass Details

Date: 29 October 2020
Orbit: 605 x 617 km, 75.0° (Epoch: 25 November)

Event Time Altitude Azimuth Distance (km) Brightness Sun altitude
Rises 18:30:06 0° 347° (NNW) 2,897 5.0 -22.8°
Reaches altitude 10° 18:32:48 10° 2° (N) 1,989 4.0 -23.3°
Enters shadow 18:33:43 14° 12° (NNE) 1,729 3.6 -23.4°
